Flag for U.S.A. Weather past 2 weeks in Avalon (Santa Catalina Island), California, U.S.A.

Now
67 °F

Sunny.


Feels Like: 67 °F
Forecast: 61 / 74 °F
Wind: 5 mph from West

Location: Catalina Airport

Current Time: Mar 29, 2015 at 10:25:43 AM

Latest Report: Mar 29, 2015 at 9:51 AM


Visibility: 10 mi

Pressure: 30.02 "Hg

Humidity: 57%

Dew point: 51 °F

Location of Avalon (Santa Catalina Island)Location

Historic Weather in Avalon (Santa Catalina Island) — Graph

°F

Avalon (Santa Catalina Island) temperature yesterday

Maximum temperature yesterday: 77 °F (at 11:51 AM)
Minimum temperature yesterday: 66 °F (at 7:51 PM)
Average temperature yesterday: 71 °F

Past Weeks' High & Low Weather Summary

 TemperatureHumidityPressure
High84 °F (Mar 14, 12:51 PM)100% (Mar 18, 4:51 AM)30.19 "Hg (Mar 18, 4:51 AM)
Low49 °F (Mar 22, 6:59 AM)13% (Mar 26, 2:51 PM)29.86 "Hg (Mar 16, 5:51 PM)
Average66 °F53%30.02 "Hg
* Reported Mar 14 8:51 AM — Mar 29 8:51 AM, Avalon (Santa Catalina Island), Weather by CustomWeather, © 2015

Note: Actual official high and low records may vary slightly from our data, if they occured in-between our weather recording intervals... More about our weather records

Advertising

Avalon (Santa Catalina Island) weather history for previous 24 hours

 ConditionsComfort  
Time TempWeatherWind HumidityBarometerVisibility
8:51 AM
Sun, Mar 29
61 °FSunny.No wind65%30.03 "Hg10 mi
7:53 AM57 °FHaze.No wind74%30.07 "Hg3 mi
6:51 AM65 °FClear.No wind27%30.01 "Hg10 mi
5:51 AM65 °FClear.6 mph29%29.99 "Hg10 mi
4:51 AM62 °FClear.7 mph43%29.98 "Hg10 mi
3:51 AM62 °FClear.6 mph46%29.98 "Hg10 mi
2:51 AM66 °FClear.5 mph37%29.98 "Hg10 mi
1:51 AM67 °FClear.3 mph37%30.00 "Hg10 mi
12:51 AM65 °FClear.3 mph42%30.01 "Hg10 mi
11:51 PM
Sat, Mar 28
67 °FClear.5 mph37%30.01 "Hg10 mi
10:51 PM67 °FClear.No wind36%30.01 "Hg10 mi
9:51 PM70 °FClear.3 mph32%30.00 "Hg10 mi
8:51 PM66 °FClear.8 mph39%30.01 "Hg10 mi
7:51 PM66 °FSunny.7 mph40%30.00 "Hg10 mi
6:51 PM69 °FSunny.12 mph38%29.99 "Hg10 mi
5:51 PM72 °FSunny.9 mph31%29.99 "Hg10 mi
4:51 PM73 °FSunny.9 mph32%29.98 "Hg10 mi
3:51 PM75 °FSunny.10 mph33%29.99 "Hg10 mi
2:51 PM74 °FSunny.9 mph36%30.00 "Hg10 mi
1:51 PM74 °FSunny.9 mph33%30.02 "Hg10 mi
12:51 PM77 °FSunny.9 mph22%30.03 "Hg10 mi
11:51 AM77 °FSunny.8 mph24%30.04 "Hg10 mi
10:51 AM76 °FSunny.8 mph25%30.04 "Hg10 mi
Weather by CustomWeather, © 2015

See weather overviewHow to use our weather pages